Weather History for KLRD - January, 2013

Change the Weather History Date:

Thursday, January 10, 2013

  Actual Average Record
Temperature  
Mean Temperature 59 °F 56 °F  
Max Temperature 74 °F 66 °F 89 °F (1963)
Min Temperature 43 °F 46 °F 22 °F (1962)
Degree Days  
Heating Degree Days 6 10  
Month to date heating degree days 122 100  
Since 1 July heating degree days 324 490  
Cooling Degree Days 0 1  
Month to date cooling degree days 0 10  
Year to date cooling degree days 0 10  
Growing Degree Days 8 (Base 50)    
Moisture  
Dew Point 45 °F    
Average Humidity 68    
Maximum Humidity 100    
Minimum Humidity 30    
Precipitation  
Precipitation 0.00 in 0.03 in 0.50 in (2001)
Month to date precipitation 0.44 0.30  
Year to date precipitation 0.44 0.30  
Sea Level Pressure  
Sea Level Pressure 30.06 in    
Wind  
Wind Speed 5 mph (East)    
Max Wind Speed 20 mph    
Max Gust Speed 22 mph    
Visibility 10 miles    
Events      
T = Trace of Precipitation, MM = Missing Value Source: NWS Daily Summary

Daily Weather History Graph

Daily Weather History Graph

Search for Another Location

Airport or City:

Trip Planner

Search our weather history database for the weather conditions in past years. The results will help you decide how hot, cold, wet, or windy it might be!

Date:

Astronomy

Jan. 10, 2013 Rise Set
Actual Time 7:29 AM CST 6:01 PM CST
Civil Twilight 7:04 AM CST 6:26 PM CST
Nautical Twilight 6:35 AM CST 6:55 PM CST
Astronomical Twilight 6:07 AM CST 7:24 PM CST
Moon 6:11 AM CST (1/10) 5:09 PM CST (1/10)
Length of Visible Light 11h 22m
Length of Day
10h 31m
Waning Crescent, 2% of the Moon is Illuminated
Jan 10
Waning Crescent
Jan 11
New
Jan 18
First Quarter
Jan 26
Full
Feb 3
Last Quarter

Hourly Weather History & Observations

Time (CST) Temp. Windchill Dew Point Humidity Pressure Visibility Wind Dir Wind Speed Gust Speed Precip Events Conditions
12:56 AM 50.0 °F - 50.0 °F 100% 30.12 in 7.0 mi Calm Calm - N/A   Clear
1:56 AM 46.9 °F - 46.9 °F 100% 30.11 in 3.0 mi Calm Calm - N/A   Clear
2:56 AM 46.9 °F - 46.9 °F 100% 30.12 in 10.0 mi North 4.6 mph - N/A   Clear
3:56 AM 46.9 °F - 45.9 °F 96% 30.11 in 10.0 mi NW 5.8 mph - N/A   Clear
4:56 AM 45.9 °F - 45.0 °F 97% 30.10 in 10.0 mi Calm Calm - N/A   Clear
5:56 AM 45.0 °F 43.5 °F 43.0 °F 93% 30.09 in 10.0 mi East 3.5 mph - N/A   Clear
6:56 AM 43.9 °F - 41.9 °F 93% 30.09 in 10.0 mi Calm Calm - N/A   Clear
7:56 AM 43.9 °F - 43.9 °F 100% 30.11 in 10.0 mi Calm Calm - N/A   Clear
8:56 AM 48.2 °F - 46.4 °F 93% 30.13 in 10.0 mi North 3.5 mph - N/A   Clear
9:56 AM 54.9 °F - 45.0 °F 69% 30.12 in 10.0 mi NW 5.8 mph - N/A   Clear
10:56 AM 59.0 °F - 45.0 °F 60% 30.11 in 10.0 mi WNW 9.2 mph - N/A   Clear
11:56 AM 66.9 °F - 45.0 °F 45% 30.06 in 10.0 mi WNW 13.8 mph - N/A   Clear
12:56 PM 68.9 °F - 43.9 °F 40% 30.04 in 10.0 mi West 11.5 mph - N/A   Clear
1:56 PM 70.9 °F - 41.0 °F 34% 30.02 in 10.0 mi West 4.6 mph - N/A   Clear
2:56 PM 72.0 °F - 41.0 °F 33% 30.01 in 10.0 mi Calm Calm - N/A   Clear
3:56 PM 72.9 °F - 39.9 °F 30% 30.01 in 10.0 mi NE 3.5 mph - N/A   Clear
4:56 PM 72.9 °F - 41.0 °F 32% 30.00 in 10.0 mi ESE 4.6 mph - N/A   Clear
5:56 PM 68.9 °F - 43.0 °F 39% 30.00 in 10.0 mi East 4.6 mph - N/A   Clear
6:56 PM 63.9 °F - 43.9 °F 48% 30.01 in 10.0 mi SE 5.8 mph - N/A   Clear
7:56 PM 61.0 °F - 43.9 °F 53% 30.02 in 10.0 mi ESE 3.5 mph - N/A   Clear
8:56 PM 57.9 °F - 43.9 °F 60% 30.02 in 10.0 mi ESE 6.9 mph - N/A   Clear
9:56 PM 57.9 °F - 45.9 °F 64% 30.03 in 10.0 mi SSE 8.1 mph - N/A   Clear
10:56 PM 57.2 °F - 48.2 °F 72% 30.05 in 10.0 mi SSE 11.5 mph - N/A   Clear
11:56 PM 57.2 °F - 53.6 °F 88% 30.05 in 10.0 mi SSE 10.4 mph - N/A   Clear